Regional Weather Roundup
Issued by NWS

Home | Current Version | Previous Version | Graphics & Text | Print | Product List | Glossary On
Versions: 1 2 3 4 5 6 7 8 9 10 11 12 13 14 15 16 17 18 19 20 21 22 23 24 25 26 27 28 29 30 31 32 33 34 35 36 37 38 39 40 41 42 43 44 45 46 47 48 49 50
000
ASUS43 KOAX 140410
RWRNE

WEATHER ROUNDUP FOR NEBRASKA
NATIONAL WEATHER SERVICE OMAHA NE
1100 PM CDT SUN JUL 13 2014

NOTES: SATELLITE DATA IS BEING USED TO AUGMENT CLOUD COVER ABOVE
       12000 FEET.
       "FAIR" INDICATES FEW OR NO CLOUDS BELOW 12,000 FEET WITH NO
       SIGNIFICANT WEATHER AND/OR OBSTRUCTIONS TO VISIBILITY.

  * THESE STATIONS DO NOT REPORT WEATHER SUCH AS RAIN...SNOW OR FOG.

NEZ001>004-019>022-054>056-140500-
NEBRASKA PANHANDLE

CITY           SKY/WX    TMP DP  RH WIND       PRES   REMARKS
SCOTTSBLUFF    CLEAR     71  63  75 E3        30.17R
ALLIANCE       CLEAR     64  57  78 NE7       30.17R
CHADRON        CLEAR     69  57  65 N6        30.16R
KIMBALL        CLEAR     65  61  84 SW5       30.22R
SIDNEY         CLEAR     64  59  83 SW8       30.21R
$$

NEZ057>060-069>072-079>082-140500-
SOUTHWEST NEBRASKA

CITY           SKY/WX    TMP DP  RH WIND       PRES   REMARKS
NORTH PLATTE   PTCLDY    72  63  73 SW7       30.11R
IMPERIAL       CLEAR     66  62  87 SW7       30.15R
LEXINGTON      CLEAR     75  65  73 SE3       30.08S
MCCOOK         PTCLDY    70  63  78 SW3       30.11R
OGALLALA       CLEAR     67  62  85 W3        30.14R
$$

NEZ005>010-023>029-035>040-094-140500-
NORTH CENTRAL NEBRASKA

CITY           SKY/WX    TMP DP  RH WIND       PRES   REMARKS
VALENTINE      CLEAR     71  56  58 NE6       30.11R
AINSWORTH      MOCLDY    67  58  72 N5        30.10R
BROKEN BOW     PTCLDY    66  63  90 CALM      30.08R
O`NEILL        CLEAR     69  56  64 N5        30.06S
ORD            PTCLDY    67  63  87 SW3       30.04R
THEDFORD       PTCLDY    73  57  58 CALM      30.12R
$$

NEZ041-046>049-061>064-073>077-083>087-140500-
SOUTH CENTRAL NEBRASKA

CITY           SKY/WX    TMP DP  RH WIND       PRES   REMARKS
GRAND ISLAND   CLEAR     74  64  71 S5        30.04S
AURORA         CLEAR     72  68  88 S3        30.03F
HASTINGS       CLEAR     74  65  73 CALM      30.05S
HEBRON         CLEAR     74  69  83 CALM      30.03S
HOLDREGE       CLEAR     74  61  64 S3        30.07S
KEARNEY *      CLEAR     73  63  68 S6        30.07S
YORK           CLEAR     70  68  94 MISG      30.03S
$$

NEZ011>018-030>034-042>045-140500-
NORTHEAST NEBRASKA

CITY           SKY/WX    TMP DP  RH WIND       PRES   REMARKS
NORFOLK        CLEAR     70  65  84 CALM      30.01R
ALBION         PTCLDY    68  63  84 CALM      30.03S
BLAIR          CLEAR     73  60  63 CALM      29.99S
FREMONT        CLEAR     75  69  80 CALM      29.99F
TEKAMAH        CLEAR     70  65  84 SW6       29.97S
WAYNE          CLOUDY    72  66  80 N3        30.01S
$$

NEZ050>053-065>068-078-088>093-140500-
SOUTHEAST NEBRASKA

CITY           SKY/WX    TMP DP  RH WIND       PRES   REMARKS
LINCOLN        CLEAR     73  69  87 CALM      30.01R
OMAHA EPPLEY   CLEAR     75  67  76 CALM      29.98S
BEATRICE       CLEAR     70  67  91 CALM      30.01S
FALLS CITY     PTCLDY    72  72 100 CALM      29.98F
NEBRASKA CITY  CLEAR     75  67  78 CALM      30.00S
PLATTSMOUTH    CLEAR     75  67  74 CALM      29.99F
$$

NEZ044-045-051>053-067-140500-
OMAHA AREA

CITY           SKY/WX    TMP DP  RH WIND       PRES   REMARKS
OMAHA EPPLEY   CLEAR     75  67  76 CALM      29.98S
BLAIR          CLEAR     73  60  63 CALM      29.99S
FREMONT        CLEAR     75  69  80 CALM      29.99F
MILLARD        CLEAR     73  69  88 CALM      29.98S
OFFUTT AFB     CLEAR     69  69 100 E2        29.98S
PLATTSMOUTH    CLEAR     75  67  74 CALM      29.99F
WAHOO          FAIR      73  68  84 W5        30.00S
$$



USA.gov is the U.S. government's official web portal to all federal, state and local government web resources and services.